Location: Unspecified
(34.1750°S, 150.8048°E)
Time: 02:00:42
(UTC+10:00)

Tiangong - Visible Passes

Search period start: 21 April 2024 00:00
Search period end: 01 May 2024 00:00
Orbit: 371 x 379 km, 41.5° (Epoch: 20 April)

Date Brightness Start Highest point End Pass type
(mag) Time Alt. Az. Time Alt. Az. Time Alt. Az.
21 Apr 0.9 04:31:53 10° NNE 04:32:50 11° NE 04:33:55 10° ENE visible
22 Apr -1.0 05:04:50 24° NNW 05:06:19 40° NNE 05:09:19 10° ESE visible
23 Apr 1.3 04:05:30 12° E 04:05:30 12° E 04:05:57 10° E visible
23 Apr -2.0 05:37:32 15° W 05:39:59 58° SSW 05:43:08 10° ESE visible
24 Apr -0.8 04:38:00 40° ESE 04:38:00 40° ESE 04:40:12 10° ESE visible
25 Apr -1.5 05:10:19 37° SW 05:10:42 39° SSW 05:13:43 10° SE visible
26 Apr 1.2 04:10:27 12° ESE 04:10:27 12° ESE 04:10:44 10° ESE visible
26 Apr -0.5 05:42:27 13° WSW 05:44:30 23° S 05:47:09 10° SE visible
27 Apr 0.0 04:42:28 22° SSE 04:42:28 22° SSE 04:44:02 10° SE visible
28 Apr -0.4 05:14:22 20° SSW 05:14:56 21° S 05:17:27 10° SE visible
29 Apr -0.4 05:46:11 11° SW 05:48:40 23° S 05:51:16 10° ESE visible
30 Apr 0.1 04:45:56 19° SSE 04:45:56 19° SSE 04:47:37 10° SE visible
